Regional Weather Roundup
Issued by NWS Burlington, VT

Home | Current Version | Previous Version | Text Only | Print | Product List | Glossary On
Versions: 1 2 3 4 5 6 7 8 9 10 11 12 13 14 15 16 17 18 19 20 21 22 23 24 25 26 27 28 29 30 31 32 33 34 35 36 37 38 39 40 41 42 43 44 45 46 47 48 49 50
000
ASUS41 KBTV 240030
RWRBTV
VERMONT REGIONAL WEATHER ROUNDUP
NATIONAL WEATHER SERVICE BURLINGTON VT
800 PM EDT WED JUL 23 2014

NOTE: "FAIR" INDICATES FEW OR NO CLOUDS BELOW 12,000 FEET WITH NO
SIGNIFICANT WEATHER AND/OR OBSTRUCTIONS TO VISIBILITY.

* THESE REPORTS ARE NOT UNDER NWS QUALITY CONTROL AND/OR DO NOT
  REPORT WEATHER SUCH AS PRECIPITATION AND FOG.

VTZ001>019-240100-
_____VERMONT_____


CITY           SKY/WX    TMP DP  RH WIND       PRES   REMARKS
BURLINGTON     CLOUDY    72  64  76 NW5       29.81R
6HR MIN TEMP:  72; 6HR MAX TEMP:  78; 6HR PCP:  0.14;

MONTPELIER     LGT RAIN  68  68 100 W3        29.85F FOG
6HR MIN TEMP:  68; 6HR MAX TEMP:  86; 6HR PCP:  1.54;

MORRISVILLE    CLOUDY    70  67  90 CALM      29.82S
6HR MIN TEMP:  68; 6HR MAX TEMP:  87; 6HR PCP:  1.18;

ST. JOHNSBURY*   N/A     68  68 100 MISG      29.78S
6HR MIN TEMP:  67; 6HR MAX TEMP:  82; 6HR PCP:  0.87;

LYNDONVILLE*   CLOUDY    68  65  89 CALM      29.83S FOG
MIDDLEBURY*    CLOUDY    69  69  98 N10G17    29.81R
6HR MIN TEMP:  69; 6HR MAX TEMP:  89; 6HR PCP:  0.62;

RUTLAND*       CLOUDY    70  68  94 W9        29.82R
6HR MIN TEMP:  70; 6HR MAX TEMP:  88; 6HR PCP:  1.01;

SPRINGFIELD    LGT RAIN  71  69  93 CALM      29.79R
6HR MIN TEMP:  70; 6HR MAX TEMP:  90; 6HR PCP:  0.10;

HIGHGATE*      CLOUDY    69  64  85 NW3       29.80R
6HR MIN TEMP:  69; 6HR MAX TEMP:  75;

NEWPORT*       CLOUDY   N/A N/A N/A NW6       29.81R
BENNINGTON     LGT RAIN  71  69  93 VRB3      29.82S FOG
6HR MIN TEMP:  71; 6HR MAX TEMP:  88; 6HR PCP:  0.41;

GALLUP MILLS*    N/A     54 N/A N/A MISG        N/A
UNION VILLAGE*   N/A     68 N/A N/A MISG        N/A

_____LAKE CHAMPLAIN_____


CITY           SKY/WX    TMP DP  RH WIND       PRES   REMARKS
BURTON ISLAND*   N/A     73  66  78 W5          N/A
COLCHESTER RF*   N/A     73  64  73 NW17        N/A
DIAMOND ISL*     N/A     70  68  94 N7          N/A

$$

NYZ007-026>031-035-052-083-240100-
_____NORTHERN NEW YORK_____


CITY           SKY/WX    TMP DP  RH WIND       PRES   REMARKS
PLATTSBURGH    LGT RAIN  71  63  75 W6        29.81R
6HR MIN TEMP:  71; 6HR MAX TEMP:  78; 6HR PCP:  0.01;

SARANAC LAKE   CLOUDY    64  60  87 VRB5      29.88R
6HR MIN TEMP:  64; 6HR MAX TEMP:  69; 6HR PCP:  0.14;

MASSENA        PTCLDY    69  58  67 NW7       29.88R
6HR MIN TEMP:  69; 6HR MAX TEMP:  76;

OGDENSBURG*    PTCLDY    68  57  68 CALM      29.89R
POTSDAM*       CLOUDY    66  61  82 N6        29.89R
PARISHVILLE*     N/A     64 N/A N/A NW6         N/A
WATERTOWN      CLOUDY    70  56  61 N6        29.89R
6HR MIN TEMP:  70; 6HR MAX TEMP:  80;

FT DRUM        CLOUDY    67  59  75 N8        29.89R
6HR MIN TEMP:  67; 6HR MAX TEMP:  77; 6HR PCP:  0.01;

ALBANY         CLOUDY    74  70  87 CALM      29.80R
6HR MIN TEMP:  73; 6HR MAX TEMP:  91; 6HR PCP:  0.14;

GLENS FALLS    LGT RAIN  71  68  90 CALM      29.79R
6HR MIN TEMP:  70; 6HR MAX TEMP:  90; 6HR PCP:  0.26;


$$
NHZ002-005-011-240100-
_____NEW HAMPSHIRE_____


CITY           SKY/WX    TMP DP  RH WIND       PRES   REMARKS
LEBANON        CLOUDY    71  68  90 CALM      29.80R
6HR MIN TEMP:  69; 6HR MAX TEMP:  91;

KEENE          CLOUDY    70  61  73 E3        29.80R THUNDER
6HR MIN TEMP:  70; 6HR MAX TEMP:  90; 6HR PCP:  0.51;

MT WASHINGTON  TSTM      55  55 100 NW38        N/A  VSB 0
6HR MIN TEMP:  52; 6HR MAX TEMP:  60;

PLYMOUTH       DRIZZLE   69  67  91 NW3       29.78R
6HR MIN TEMP:  69; 6HR MAX TEMP:  89; 6HR PCP:  0.46;

WHITEFIELD     CLOUDY    69  66  90 W3        29.82R
6HR MIN TEMP:  68; 6HR MAX TEMP:  89; 6HR PCP:  1.10;


$$

_____REGIONAL QUEBEC LOCATIONS_____


CITY           SKY/WX    TMP DP  RH WIND       PRES   REMARKS
MONTREAL       MOCLDY    73  57  56 NW7       29.82R
QUEBEC CITY    MOCLDY    70  57  64 N6        29.77R
SHERBROOKE     CLOUDY    68  66  94 CALM      29.79R

_____REGIONAL ONTARIO LOCATIONS_____


CITY           SKY/WX    TMP DP  RH WIND       PRES   REMARKS
OTTAWA         MOCLDY    72  52  49 N15G22    29.88R

______KEY______
VSB  - VISIBILITY IN MILES
WCI  - WIND CHILL INDEX
HX   - HEAT INDEX
$$



USA.gov is the U.S. government's official web portal to all federal, state and local government web resources and services.